TITAN 4B CENTAUR R/B

Satellite information

Favourite Embed

Satellite Type and Status

ROCKET BODYIN ORBIT

Key statistics

Satellite TITAN 4B CENTAUR R/B at a glance.

Uptime

9506

Days in orbit

Revolutions

≈ 9.7

Per day

Orbit

MEO

Medium Earth Orbit

Inclination

28.3

Latest

Satellite identification and parameters

Extended collection of information and parameters for TITAN 4B CENTAUR R/B.

Object identification

Identified? True

Debris? False

Object name: TITAN 4B CENTAUR R/B

International designator: 1999-023B

Object number (NORAD): 25725

Object ID (CCSDS): 25725

Country: UNITED STATES OF AMERICA (US)

Current information (Y/N): Y

RCS size: LARGE

Orbital parameters

Period: 148.845 minutes

Inclination: 28.313 deg

SMA: 9303.551 km

Apoapsis: 5143.51 km

Periapsis: 707.322 km

RAAN: 97.6513 deg

Eccentricy: 0.2384137

Argument of periapsis: 164.5326 deg

Mean anomaly: 204.3092 deg

Mean motion: 9.6745245 rev/day

Mean motion (dot): 0.0000002 rev/day2

B* drag term: -0.000043817 1/REarth

Two-line elements (TLE)

Creation date: May 9, 2025, 2:46 a.m.

Reference frame: TEME

Reference center: EARTH

Epoch: May 8, 2025, 7:25 a.m. UTC

TLE line 0: 0 TITAN 4B CENTAUR R/B

TLE line 1: 1 25725U 99023B 25128.30916579 .00000020 00000-0 -43817-4 0 9992

TLE line 2: 2 25725 28.3130 97.6513 2384137 164.5326 204.3092 9.67452450217783

Live tracking on map

Real-time ground track for satellite TITAN 4B CENTAUR R/B.

In-orbit conjunctions

A list of the most updated potential collisions computed for object TITAN 4B CENTAUR R/B.

Target Orbit TCA Probability of collision Miss distance Type
CZ-6A DEB SSO 2024-11-16 10:06:53 0.0001139614 643.0 (m) DEBRIS

Associated space launch

Milstar (Military Strategic & Tactical Relay) is the tactical and strategic multiservice satellite system designed to provide survivable communications for U.S. forces worldwide.

TITAN 4B CENTAUR R/B was lifted into orbit during the mission ‘Titan IVB | Milstar 3’, on board a Titan IVB space rocket.

The launch took place on April 30, 1999, 4:30 p.m. from Space Launch Complex 40.

For more information about the launch, click the button.

Launch to space Titan IVB | Milstar 3
Titan IVB | Milstar 3

Agency: N/A

Status: Launch Failure

Launch date: April 30, 1999, 4:30 p.m. UTC

Rocket: Titan IVB

Launch pad: Space Launch Complex 40

Location: Cape Canaveral SFS, FL, USA

...

Latest news about this satellite

There are no fresh news available about this satellite. Check back as we update our databases every day.


Newsletter sign-up

Weekly statistics, charts and insights to help you stay on top of the space industry.